This demonstration page uses our WeatherBlox Daily Observations layout. Learn more.

40.92945, -100.16068

Hourly Observations for March 22, 2020

Temp ( °F °C ) Dew Point ( °F °C ) Humidity (%) Winds ( mph kmh ) Pressure ( in mb ) Visibility ( mi km ) Precip ( " mm )
12:15 am 00:15 Clear 40 4.2 32 0 74 74 S 10 17 30.19 1022 10 16.0934 0 0
12:35 am 00:35 Clear 40 4.4 32 -0.1 73 73 SSE 12 19 30.17 1022 10 16.0934 0 0
12:55 am 00:55 Clear 39 3.7 31 -0.3 75 75 S 10 17 30.17 1022 10 16.0934 0 0
1:15 am 01:15 Clear 38 3.5 31 -0.6 75 75 SSE 10 17 30.17 1022 10 16.0934 0 0
1:35 am 01:35 Clear 38 3.1 30 -1 75 75 S 9 15 30.17 1022 10 16.0934 0 0
1:55 am 01:55 Clear 37 2.9 30 -1 76 76 S 10 17 30.17 1022 10 16.0934 0 0
2:15 am 02:15 Clear 37 2.5 30 -1.1 77 77 SSE 8 13 30.16 1021 10 16.0934 0 0
2:35 am 02:35 Clear 36 2.1 30 -1.2 79 79 SSE 9 15 30.17 1022 10 16.0934 0 0
2:55 am 02:55 Clear 35 1.7 30 -1.3 81 81 SSE 8 13 30.16 1021 10 16.0934 0 0
3:15 am 03:15 Clear 35 1.5 30 -1.3 82 82 SSE 7 11 30.15 1021 10 16.0934 0 0
3:35 am 03:35 Clear 35 1.7 30 -1.3 81 81 SSE 6 9 30.14 1021 10 16.0934 0 0
3:55 am 03:55 Clear 34 1.3 30 -1.3 83 83 SE 5 7 30.14 1021 10 16.0934 0 0
4:15 am 04:15 Clear 34 1 30 -1.2 85 85 SE 5 7 30.15 1021 10 16.0934 0 0
4:35 am 04:35 Clear 33 0.6 30 -1.3 87 87 SE 5 7 30.15 1021 10 16.0934 0 0
4:55 am 04:55 Clear 34 1.2 30 -1.2 84 84 SSE 5 7 30.15 1021 10 16.0934 0 0
5:15 am 05:15 Clear 33 0.8 30 -1 88 88 SSE 7 11 30.15 1021 10 16.0934 0 0
5:35 am 05:35 Clear 34 1 30 -1 87 87 SSE 5 7 30.14 1021 10 16.0934 0 0
5:55 am 05:55 Clear 34 0.9 30 -1 87 87 SSE 5 7 30.14 1021 10 16.0934 0 0
6:15 am 06:15 Clear 33 0.7 30 -1 89 89 SE 3 6 30.14 1021 10 16.0934 0 0
6:35 am 06:35 Clear 34 0.9 30 -1.1 87 87 SE 5 7 30.13 1020 10 16.0934 0 0
6:55 am 06:55 Clear 33 0.6 30 -1 89 89 SSE 5 7 30.13 1020 10 16.0934 0 0
7:15 am 07:15 Clear 33 0.6 30 -1 89 89 SSE 6 9 30.13 1020 10 16.0934 0 0
7:35 am 07:35 Clear 33 0.5 30 -1 90 90 SSE 6 9 30.12 1020 10 16.0934 0 0
7:55 am 07:55 Sunny 32 0.1 30 -1.2 91 91 SSE 6 9 30.13 1020 10 16.0934 0 0
8:15 am 08:15 Sunny 32 0.1 30 -1 92 92 SE 5 7 30.13 1020 10 16.0934 0 0
8:35 am 08:35 Sunny 33 0.4 31 -0.8 92 92 SSE 5 7 30.12 1020 10 16.0934 0 0
8:55 am 08:55 Sunny 33 0.8 31 -0.5 91 91 SSE 6 9 30.12 1020 10 16.0934 0 0
9:15 am 09:15 Sunny 35 1.5 31 -0.3 88 88 SSE 5 7 30.11 1020 10 16.0934 0 0
9:35 am 09:35 Sunny 36 2.4 32 0.1 85 85 SSE 6 9 30.09 1019 10 16.0934 0 0
9:55 am 09:55 Sunny 39 3.8 34 1.2 83 83 S 10 17 30.08 1019 10 16.0934 0 0
10:15 am 10:15 Sunny 41 4.8 35 1.9 82 82 S 10 17 30.07 1018 10 16.0934 0 0
10:35 am 10:35 Sunny 43 6 36 2.3 77 77 SSW 8 13 30.06 1018 10 16.0934 0 0
10:55 am 10:55 Sunny 44 6.8 37 2.6 75 75 SSW 6 9 30.05 1018 10 16.0934 0 0
11:15 am 11:15 Sunny 45 7.2 37 2.8 74 74 S 6 9 30.05 1018 10 16.0934 0 0
11:35 am 11:35 Sunny 47 8.1 38 3.1 71 71 S 7 11 30.04 1017 10 16.0934 0 0
11:55 am 11:55 Sunny 48 9 39 3.9 71 71 S 8 13 30.02 1017 10 16.0934 0 0
12:15 pm 12:15 Sunny 51 10.4 41 5 69 69 S 9 15 30.01 1016 10 16.0934 0 0
12:35 pm 12:35 Sunny 50 10 40 4.6 69 69 S 10 17 30 1016 10 16.0934 0 0
12:55 pm 12:55 Sunny 51 10.5 40 4.3 66 66 SW 7 11 30 1016 10 16.0934 0 0
1:15 pm 13:15 Sunny 52 11.3 41 4.9 65 65 S 12 19 29.98 1015 10 16.0934 0 0
1:35 pm 13:35 Partly Cloudy 52 11.1 42 5.4 68 68 S 12 19 29.97 1015 10 16.0934 0 0
1:55 pm 13:55 Partly Cloudy 52 11.1 42 5.7 70 70 S 15 24 29.97 1015 10 16.0934 0 0
2:15 pm 14:15 Sunny 53 11.5 43 5.9 69 69 S 14 22 29.96 1014 10 16.0934 0 0
2:35 pm 14:35 Sunny 51 10.7 42 5.7 71 71 S 14 22 29.95 1014 10 16.0934 0 0
2:55 pm 14:55 Sunny 52 11.3 43 6.1 71 71 S 16 26 29.94 1014 10 16.0934 0 0
3:15 pm 15:15 Sunny 53 11.5 43 5.9 69 69 SSE 14 22 29.92 1013 10 16.0934 0 0
3:35 pm 15:35 Sunny 54 12.4 44 6.8 69 69 S 14 22 29.9 1013 10 16.0934 0 0
3:55 pm 15:55 Sunny 53 11.7 42 5.6 66 66 S 13 20 29.92 1013 10 16.0934 0 0
4:15 pm 16:15 Sunny 53 11.9 42 5.8 67 67 S 9 15 29.9 1013 10 16.0934 0 0
4:35 pm 16:35 Sunny 55 12.7 43 6 64 64 SSE 13 20 29.9 1012 10 16.0934 0 0
4:55 pm 16:55 Sunny 54 12.4 42 5.8 64 64 SSW 13 20 29.91 1013 10 16.0934 0 0
5:15 pm 17:15 Mostly Cloudy 54 12 42 5.7 66 66 S 9 15 29.92 1013 10 16.0934 0 0
5:35 pm 17:35 Cloudy 53 11.7 42 5.8 67 67 S 9 15 29.93 1013 10 16.0934 0 0
5:55 pm 17:55 Cloudy with Light Rain 53 11.5 43 6 69 69 S 5 7 29.95 1014 10 16.0934 0 0
6:15 pm 18:15 Cloudy with Rain 51 10.6 44 6.7 77 77 SE 3 6 29.97 1015 5 8.0467 0.02 0.508
6:35 pm 18:35 Cloudy with Rain 50 9.9 45 7.2 83 83 SSE 15 24 29.94 1014 5 8.0467 0.07 1.778
6:55 pm 18:55 Partly Cloudy 49 9.5 44 6.9 84 84 SSE 15 24 29.95 1014 10 16.0934 0.07 1.778
7:15 pm 19:15 Sunny 49 9.5 44 6.6 82 82 S 13 20 29.95 1014 10 16.0934 0 0
7:35 pm 19:35 Sunny 49 9.3 43 6.3 82 82 SSE 12 19 29.95 1014 10 16.0934 0 0
7:55 pm 19:55 Clear 48 9 43 5.9 81 81 S 14 22 29.96 1015 10 16.0934 0 0
8:15 pm 20:15 Clear 47 8.4 42 5.5 82 82 SSE 14 22 29.97 1015 10 16.0934 0 0
8:35 pm 20:35 Clear 46 7.8 42 5.3 84 84 SSE 9 15 29.98 1015 10 16.0934 0 0
8:55 pm 20:55 Clear 44 6.8 41 4.9 88 88 SSE 8 13 29.99 1016 10 16.0934 0 0
9:15 pm 21:15 Clear 43 6.2 40 4.7 90 90 S 9 15 30.01 1016 10 16.0934 0 0
9:35 pm 21:35 Clear 42 5.7 40 4.4 91 91 SSE 7 11 30.01 1016 10 16.0934 0 0
9:55 pm 21:55 Mostly Cloudy 43 6 40 4.7 91 91 SSE 5 7 30.02 1017 10 16.0934 0 0
10:15 pm 22:15 Mostly Cloudy 43 5.9 40 4.5 91 91 Calm 30.03 1017 10 16.0934 0 0
10:35 pm 22:35 Mostly Cloudy 42 5.6 39 4.1 90 90 SSE 5 7 30.04 1017 10 16.0934 0 0
10:55 pm 22:55 Partly Cloudy 41 5.1 39 4.1 93 93 SSE 8 13 30.05 1018 10 16.0934 0 0
11:15 pm 23:15 Clear 41 4.8 39 4 95 95 S 7 11 30.06 1018 10 16.0934 0 0
11:35 pm 23:35 Clear 39 3.7 38 3.2 97 97 S 3 6 30.07 1018 10 16.0934 0 0
11:55 pm 23:55 Clear 38 3.2 37 2.7 97 97 Calm 30.08 1018 10 16.0934 0 0

Powered by AerisWeather